Terminal Aerodrome Forecast
Issued by NWS

Current Version | Previous Version | Graphics & Text | Print | Product List | Glossary On
Versions: 1 2 3 4 5 6 7 8 9 10 11 12 13 14 15 16 17 18 19 20 21 22 23 24 25
700
FTUS41 KRLX 261736
TAFCKB
TAF
KCKB 261736Z 2618/2718 22008G16KT P6SM SCT040 BKN060
     FM262000 21010G19KT P6SM BKN040 OVC100
      TEMPO 2620/2623 1SM SHRA OVC025
     FM262300 26009KT P6SM BKN035 OVC100
     FM270500 27005KT P6SM BKN003
     FM270700 24005KT 4SM BR BKN008
     FM270800 VRB03KT 1 1/2SM BR SCT001
     FM271100 22004KT 5SM BR SCT015
     FM271400 22006KT P6SM FEW250=

USA.gov is the U.S. government's official web portal to all federal, state and local government web resources and services.